Tracking 17140 objects as of 2-July-2015
HD Live streaming from Space Station

NAVSTAR 28 (USA 85)

Track NAVSTAR 28 (USA 85) now!
NAVSTAR 28 (USA 85) is classified as:


NORAD ID: 22231
Int'l Code: 1992-079A
Perigee: 19,963.5 km
Apogee: 20,415.5 km
Inclination: 55.5 °
Period: 718.0 minutes
Semi major axis: 26560 km
RCS: 3.981 m2 (large)
Launch date: November 22, 1992
Source: United States (US)
PRN:
Your satellite tracking list
Your tracking list is empty





NASA's NSSDC Master Catalog

Two Line Element Set (TLE):
1 22231U 92079A   15182.55152568  .00000029  00000-0  00000+0 0  9991
2 22231 055.5415 255.4121 0085087 282.5606 049.6594 02.00561549165612

Source of the keplerian elements: AFSPC

N2YO: 195